Погода в Карпиловке

Украина / Ровненская область     51°24′37″N   26°42′19″E
темп.,
°C
ветер,
м/с
пор.,
м/с
влажн.,
%
обл.,
%
осадки,
мм/ч
давл.,
гПа
погр.,
м
13 апреля, вт
вт1300:00+9юв38675 0.0 1019127
03:00+7ююв34775 0.0 101955
06:00+6вюв348195 0.0 101947
09:00+10вюв356683 0.0 1019250
12:00+16юв334698 0.0 1017950
15:00+18юв1137100 0.0 10161691
18:00+14вюв5661100 0.0 1015481
21:00+11юв3775100 0.0 1016354
14 апреля, ср
ср1400:00+10юв2582100 0.0 1015169
03:00+10вюв1185100 0.0 101452
06:00+9в1193100 0.6 101339
09:00+9в1294100 1.7 1013147
12:00+9юв2392100 0.6 1013273
15:00+9ююв1293100 1.2 1013256
18:00+9ю1396100 0.9 1013236
21:00+8в1197100 1.9 101383
15 апреля, чт
чт1500:00+8ююз1298100 1.5 1013116
03:00+7з2296100 2.5 1014138
06:00+6ссз2295100 0.0 101491
09:00+7с2391100 0.1 1014177
12:00+10ссв2485100 0.1 1014520
15:00+13ссз3366100 0.9 1013937
18:00+12с3574100 2.2 1012173
21:00
16 апреля, пт
пт1600:00+8ссз3796100 0.3 1012175
03:00+8с3699100 0.4 1012199
06:00+8с3697100 0.4 1012269
09:00+9с5894100 0.8 1012471
12:00+10с5889100 1.1 1012734
15:00+13св5773100 2.2 10111063
18:00+10всв3694100 4.0 1012444
21:00+8св358780 0.4 101593
17 апреля, сб
сб1700:00+7ссв229348 0.0 101511
03:00+8всв249470 0.0 1016113
06:00+5в379422 0.0 1018133
09:00+9всв46715 0.0 1019516
12:00+12в465547 0.0 10201622
15:00+11вюв576398 0.1 1020843
18:00+11в486251 0.0 1021778
21:00+8в337452 0.0 102235